Weather History for Fort Worth, TX

Change the Weather History Date:

Sunday, January 6, 2013

  Actual Average Record
Temperature  
Mean Temperature 44 °F -  
Max Temperature 57 °F 54 °F 75 °F (2008)
Min Temperature 30 °F 35 °F 12 °F (2014)
Degree Days  
Heating Degree Days 22    
Moisture  
Dew Point 28 °F    
Average Humidity 61    
Maximum Humidity 93    
Minimum Humidity 29    
Precipitation  
Precipitation 0.00 in - - ()
Sea Level Pressure  
Sea Level Pressure 30.35 in    
Wind  
Wind Speed 7 mph (North)    
Max Wind Speed 15 mph    
Max Gust Speed 16 mph    
Visibility 10 miles    
Events      
Averages and records for this station are not official NWS values.
T = Trace of Precipitation, MM = Missing Value Source: NWS Daily Summary

Daily Weather History Graph

Daily Weather History Graph

Search for Another Location

Airport:

Trip Planner

Search our weather history database for the weather conditions in past years. The results will help you decide how hot, cold, wet, or windy it might be!

Date:

Astronomy

Jan. 06, 2013 Rise Set
Actual Time 7:32 AM CST 5:38 PM CST
Civil Twilight 7:05 AM CST 6:05 PM CST
Nautical Twilight 6:35 AM CST 6:36 PM CST
Astronomical Twilight 6:05 AM CST 7:06 PM CST
Moon 1:55 AM CST (1/6) 1:00 PM CST (1/6)
Length of Visible Light 10h 59m
Length of Day
10h 05m
Waning Crescent, 33% of the Moon is Illuminated
Jan 6
Waning Crescent
Jan 11
New
Jan 18
First Quarter
Jan 26
Full
Feb 3
Last Quarter

Hourly Weather History & Observations

Time (CST) Temp. Windchill Dew Point Humidity Pressure Visibility Wind Dir Wind Speed Gust Speed Precip Events Conditions
12:53 AM 37.9 °F - 36.0 °F 93% 30.30 in 8.0 mi Calm Calm - N/A   Clear
1:53 AM 37.0 °F 33.3 °F 34.0 °F 89% 30.30 in 9.0 mi NW 4.6 mph - N/A   Clear
2:53 AM 36.0 °F 28.0 °F 30.9 °F 82% 30.31 in 10.0 mi NW 11.5 mph - N/A   Clear
3:53 AM 34.0 °F 27.2 °F 28.9 °F 82% 30.32 in 10.0 mi NNW 8.1 mph - N/A   Clear
4:53 AM 33.1 °F 26.1 °F 28.0 °F 82% 30.33 in 10.0 mi NW 8.1 mph - N/A   Clear
5:53 AM 32.0 °F 25.6 °F 27.0 °F 82% 30.35 in 10.0 mi NNW 6.9 mph - N/A   Clear
6:53 AM 30.9 °F 23.5 °F 26.1 °F 82% 30.37 in 10.0 mi NNW 8.1 mph - N/A   Clear
7:53 AM 32.0 °F 24.8 °F 26.1 °F 79% 30.39 in 10.0 mi NNW 8.1 mph - N/A   Clear
8:53 AM 35.1 °F 27.4 °F 27.0 °F 72% 30.41 in 10.0 mi NNW 10.4 mph - N/A   Clear
9:53 AM 42.8 °F 35.8 °F 30.2 °F 61% 30.41 in 10.0 mi North 13.8 mph - N/A   Clear
10:53 AM 46.0 °F 40.6 °F 30.0 °F 54% 30.42 in 10.0 mi NNW 11.5 mph - N/A   Clear
11:53 AM 50.0 °F - 27.0 °F 41% 30.40 in 10.0 mi North 12.7 mph - N/A   Clear
12:53 PM 52.0 °F - 28.0 °F 40% 30.37 in 10.0 mi NNE 12.7 mph - N/A   Clear
1:53 PM 55.9 °F - 26.1 °F 32% 30.35 in 10.0 mi North 15.0 mph - N/A   Clear
2:53 PM 55.9 °F - 26.1 °F 32% 30.34 in 10.0 mi North 11.5 mph 16.1 mph N/A   Clear
3:53 PM 57.0 °F - 25.0 °F 29% 30.33 in 10.0 mi NNE 8.1 mph - N/A   Clear
4:53 PM 54.0 °F - 25.0 °F 33% 30.32 in 10.0 mi NNE 9.2 mph - N/A   Clear
5:53 PM 46.9 °F - 24.1 °F 41% 30.32 in 10.0 mi NNE 6.9 mph - N/A   Clear
6:53 PM 46.9 °F - 25.0 °F 42% 30.34 in 10.0 mi NE 4.6 mph - N/A   Clear
7:53 PM 45.0 °F - 26.1 °F 48% 30.35 in 10.0 mi Calm Calm - N/A   Clear
8:53 PM 39.0 °F - 27.0 °F 62% 30.36 in 10.0 mi Calm Calm - N/A   Clear
9:53 PM 37.9 °F - 27.0 °F 65% 30.37 in 10.0 mi Calm Calm - N/A   Clear
10:53 PM 37.0 °F - 28.0 °F 70% 30.36 in 10.0 mi Calm Calm - N/A   Clear
11:53 PM 35.1 °F 32.2 °F 27.0 °F 72% 30.34 in 10.0 mi NNW 3.5 mph - N/A   Clear